| time (UTC) | temp F | wind direction | speed knots | gust knots | rain 1hr in | rain 24hr in | rain mn in | humidity % | barometer mb |
| 20260831165021 | 69 | 158 | 2.6 | 4.3 | 0.00 | 0.02 | 0.02 | 85 | 1017.6 |
| 20260831164020 | 69 | 180 | 2.6 | 5.2 | 0.00 | 0.02 | 0.02 | 84 | 1017.8 |
| 20260831163040 | 69 | 158 | 2.6 | 4.3 | 0.01 | 0.02 | 0.02 | 84 | 1017.7 |
| 20260831162020 | 69 | 158 | 3.5 | 5.2 | 0.01 | 0.02 | 0.02 | 84 | 1017.8 |
| 20260831161020 | 69 | 158 | 1.7 | 5.2 | 0.01 | 0.02 | 0.02 | 84 | 1018.0 |
| 20260831160040 | 70 | 158 | 1.7 | 4.3 | 0.01 | 0.02 | 0.02 | 84 | 1017.8 |
| 20260831155021 | 69 | 180 | 3.5 | 6.1 | 0.02 | 0.02 | 0.02 | 85 | 1017.8 |
| 20260831154020 | 69 | 158 | 3.5 | 5.2 | 0.02 | 0.02 | 0.02 | 84 | 1017.9 |
| 20260831153020 | 69 | 158 | 4.3 | 7.8 | 0.01 | 0.01 | 0.01 | 84 | 1017.7 |
| 20260831152020 | 68 | 158 | 4.3 | 7.8 | 0.01 | 0.01 | 0.01 | 84 | 1018.0 |
| 20260831151028 | 69 | 158 | 2.6 | 4.3 | 0.01 | 0.01 | 0.01 | 84 | 1018.0 |
| 20260831150028 | 69 | 180 | 2.6 | 4.3 | 0.01 | 0.01 | 0.01 | 82 | 1018.2 |
| 20260831145020 | 69 | 180 | 2.6 | 6.1 | 0.00 | 0.00 | 0.00 | 82 | 1018.0 |
| 20260831144020 | 70 | 180 | 2.6 | 5.2 | 0.00 | 0.00 | 0.00 | 81 | 1017.9 |
| 20260831142020 | 70 | 135 | 1.7 | 5.2 | 0.00 | 0.00 | 0.00 | 78 | 1017.7 |
| 20260831141020 | 70 | 0.0 | 2.6 | 0.00 | 0.00 | 0.00 | 80 | 1017.7 | |
| 20260831140020 | 69 | 0.0 | 1.7 | 0.00 | 0.00 | 0.00 | 80 | 1017.7 | |
| 20260831135020 | 69 | 180 | 1.7 | 2.6 | 0.00 | 0.00 | 0.00 | 80 | 1017.7 |
| 20260831134028 | 68 | 180 | 0.9 | 2.6 | 0.00 | 0.00 | 0.00 | 81 | 1017.8 |
| 20260831133056 | 68 | 158 | 1.7 | 2.6 | 0.00 | 0.00 | 0.00 | 82 | 1017.9 |
| 20260831132029 | 67 | 158 | 1.7 | 4.3 | 0.00 | 0.00 | 0.00 | 83 | 1017.7 |
| 20260831131053 | 67 | 135 | 1.7 | 4.3 | 0.00 | 0.00 | 0.00 | 83 | 1017.7 |
| 20260831130047 | 66 | 158 | 2.6 | 4.3 | 0.00 | 0.00 | 0.00 | 84 | 1017.7 |
| 20260831125041 | 66 | 158 | 0.9 | 1.7 | 0.00 | 0.00 | 0.00 | 85 | 1017.9 |
| 20260831124021 | 65 | 158 | 3.5 | 5.2 | 0.00 | 0.00 | 0.00 | 85 | 1017.8 |
| 20260831123021 | 65 | 135 | 0.9 | 2.6 | 0.00 | 0.00 | 0.00 | 85 | 1018.1 |
| 20260831122021 | 65 | 158 | 2.6 | 4.3 | 0.00 | 0.00 | 0.00 | 86 | 1018.0 |
| 20260831121021 | 64 | 158 | 2.6 | 4.3 | 0.00 | 0.00 | 0.00 | 86 | 1018.2 |
| 20260831120023 | 64 | 158 | 1.7 | 4.3 | 0.00 | 0.00 | 0.00 | 87 | 1018.3 |
| 20260831115021 | 64 | 158 | 2.6 | 4.3 | 0.00 | 0.00 | 0.00 | 87 | 1018.3 |
| 20260831114022 | 64 | 158 | 2.6 | 3.5 | 0.00 | 0.00 | 0.00 | 87 | 1018.3 |
| 20260831113021 | 63 | 158 | 1.7 | 3.5 | 0.00 | 0.00 | 0.00 | 88 | 1018.2 |
| 20260831112041 | 63 | 158 | 3.5 | 5.2 | 0.00 | 0.00 | 0.00 | 88 | 1018.2 |
| 20260831111021 | 63 | 180 | 3.5 | 4.3 | 0.00 | 0.00 | 0.00 | 88 | 1018.2 |
| 20260831110021 | 63 | 180 | 2.6 | 4.3 | 0.00 | 0.00 | 0.00 | 88 | 1018.1 |
| 20260831105021 | 63 | 180 | 1.7 | 4.3 | 0.00 | 0.00 | 0.00 | 88 | 1017.9 |
| 20260831104025 | 63 | 180 | 2.6 | 5.2 | 0.00 | 0.00 | 0.00 | 88 | 1017.9 |
| 20260831103021 | 63 | 203 | 1.7 | 2.6 | 0.00 | 0.00 | 0.00 | 88 | 1017.8 |
| 20260831102021 | 63 | 158 | 1.7 | 3.5 | 0.00 | 0.00 | 0.00 | 88 | 1017.7 |
| 20260831101021 | 63 | 158 | 1.7 | 3.5 | 0.00 | 0.00 | 0.00 | 88 | 1017.7 |
| 20260831100021 | 63 | 180 | 2.6 | 5.2 | 0.00 | 0.00 | 0.00 | 88 | 1017.7 |
| 20260831095021 | 63 | 158 | 0.9 | 1.7 | 0.00 | 0.00 | 0.00 | 89 | 1017.5 |
| 20260831094021 | 63 | 158 | 0.9 | 1.7 | 0.00 | 0.00 | 0.00 | 89 | 1017.4 |
| 20260831093041 | 63 | 180 | 2.6 | 5.2 | 0.00 | 0.00 | 0.00 | 88 | 1017.6 |
| 20260831092021 | 63 | 180 | 1.7 | 3.5 | 0.00 | 0.00 | 0.00 | 88 | 1017.5 |
| 20260831091021 | 63 | 180 | 1.7 | 5.2 | 0.00 | 0.00 | 0.00 | 88 | 1017.5 |
| 20260831090021 | 63 | 180 | 1.7 | 2.6 | 0.00 | 0.00 | 0.00 | 88 | 1017.6 |
| 20260831085020 | 63 | 225 | 1.7 | 4.3 | 0.00 | 0.00 | 0.00 | 88 | 1017.7 |
| 20260831084041 | 63 | 180 | 2.6 | 3.5 | 0.00 | 0.00 | 0.00 | 88 | 1017.6 |
| 20260831083101 | 63 | 180 | 1.7 | 3.5 | 0.00 | 0.00 | 0.00 | 89 | 1017.6 |
| 20260831082020 | 63 | 180 | 1.7 | 2.6 | 0.00 | 0.00 | 0.00 | 88 | 1017.7 |
| 20260831081020 | 63 | 180 | 2.6 | 3.5 | 0.00 | 0.00 | 0.00 | 88 | 1017.7 |
| 20260831080021 | 63 | 180 | 1.7 | 2.6 | 0.00 | 0.00 | 0.00 | 88 | 1017.6 |
| 20260831075040 | 63 | 180 | 1.7 | 4.3 | 0.00 | 0.00 | 0.00 | 88 | 1017.5 |
| 20260831074020 | 63 | 180 | 1.7 | 3.5 | 0.00 | 0.00 | 0.00 | 88 | 1017.6 |
| 20260831073020 | 63 | 158 | 2.6 | 4.3 | 0.00 | 0.00 | 0.00 | 88 | 1017.5 |
| 20260831072042 | 64 | 158 | 0.9 | 3.5 | 0.00 | 0.00 | 0.00 | 88 | 1017.6 |
| 20260831071020 | 64 | 180 | 1.7 | 4.3 | 0.00 | 0.00 | 0.00 | 88 | 1017.7 |
| 20260831070020 | 64 | 158 | 1.7 | 3.5 | 0.00 | 0.00 | 0.00 | 88 | 1017.6 |
| 20260831065020 | 64 | 180 | 1.7 | 3.5 | 0.00 | 0.00 | 0.00 | 88 | 1017.8 |
| 20260831064020 | 64 | 158 | 1.7 | 3.5 | 0.00 | 0.00 | 0.00 | 88 | 1017.7 |
| 20260831063040 | 64 | 158 | 1.7 | 3.5 | 0.00 | 0.00 | 0.00 | 88 | 1017.6 |
| 20260831062020 | 64 | 158 | 2.6 | 4.3 | 0.00 | 0.00 | 0.00 | 88 | 1017.7 |
| 20260831061022 | 64 | 158 | 2.6 | 4.3 | 0.00 | 0.00 | 0.00 | 88 | 1017.8 |
| 20260831060020 | 64 | 158 | 2.6 | 3.5 | 0.00 | 0.00 | 0.00 | 88 | 1017.9 |
| 20260831055020 | 64 | 158 | 1.7 | 3.5 | 0.00 | 0.00 | 0.00 | 88 | 1018.0 |
| 20260831054041 | 64 | 158 | 1.7 | 2.6 | 0.00 | 0.00 | 0.00 | 88 | 1018.1 |
| 20260831053020 | 64 | 158 | 0.9 | 3.5 | 0.00 | 0.00 | 0.00 | 88 | 1018.2 |
| 20260831052020 | 64 | 0.0 | 1.7 | 0.00 | 0.00 | 0.00 | 88 | 1018.4 | |
| 20260831051021 | 64 | 158 | 0.9 | 3.5 | 0.00 | 0.00 | 0.00 | 88 | 1018.4 |
| 20260831050020 | 64 | 158 | 2.6 | 4.3 | 0.00 | 0.00 | 0.00 | 89 | 1018.4 |
| 20260831045040 | 64 | 158 | 0.9 | 1.7 | 0.00 | 0.00 | 0.00 | 89 | 1018.3 |
| 20260831044020 | 64 | 180 | 0.9 | 3.5 | 0.00 | 0.00 | 0.00 | 88 | 1018.2 |
| 20260831043019 | 64 | 158 | 0.9 | 2.6 | 0.00 | 0.00 | 0.00 | 88 | 1018.2 |
| 20260831042019 | 65 | 180 | 0.9 | 1.7 | 0.00 | 0.00 | 0.00 | 88 | 1018.2 |
| 20260831041020 | 65 | 180 | 1.7 | 2.6 | 0.00 | 0.00 | 0.00 | 87 | 1018.1 |
| 20260831040020 | 65 | 158 | 1.7 | 3.5 | 0.00 | 0.00 | 0.00 | 87 | 1018.0 |
| 20260831035020 | 65 | 180 | 0.9 | 1.7 | 0.00 | 0.00 | 0.00 | 87 | 1018.2 |
| 20260831034021 | 65 | 158 | 1.7 | 2.6 | 0.00 | 0.00 | 0.00 | 87 | 1018.1 |
| 20260831033020 | 66 | 180 | 1.7 | 4.3 | 0.00 | 0.00 | 0.00 | 87 | 1017.9 |
| 20260831032043 | 66 | 158 | 1.7 | 3.5 | 0.00 | 0.00 | 0.00 | 87 | 1017.9 |
| 20260831031021 | 66 | 180 | 1.7 | 3.5 | 0.00 | 0.00 | 0.00 | 87 | 1017.9 |
| 20260831030041 | 66 | 180 | 0.9 | 2.6 | 0.00 | 0.00 | 0.00 | 87 | 1018.0 |
| 20260831025021 | 66 | 180 | 1.7 | 2.6 | 0.00 | 0.00 | 0.00 | 87 | 1018.0 |
| 20260831024020 | 67 | 180 | 0.9 | 2.6 | 0.00 | 0.00 | 0.00 | 86 | 1018.0 |
| 20260831023044 | 67 | 180 | 1.7 | 2.6 | 0.00 | 0.00 | 0.00 | 86 | 1017.9 |
| 20260831022020 | 67 | 0.0 | 0.9 | 0.00 | 0.00 | 0.00 | 85 | 1017.9 | |
| 20260831021020 | 67 | 0.0 | 0.9 | 0.00 | 0.00 | 0.00 | 85 | 1017.8 | |
| 20260831020020 | 67 | 180 | 0.9 | 1.7 | 0.00 | 0.00 | 0.00 | 85 | 1017.8 |
| 20260831015021 | 68 | 180 | 0.9 | 2.6 | 0.00 | 0.00 | 0.00 | 85 | 1017.8 |
| 20260831014020 | 68 | 180 | 1.7 | 4.3 | 0.00 | 0.00 | 0.00 | 85 | 1018.0 |
| 20260831013042 | 68 | 203 | 0.9 | 2.6 | 0.00 | 0.00 | 0.00 | 85 | 1018.1 |
| 20260831012020 | 68 | 180 | 0.9 | 2.6 | 0.00 | 0.00 | 0.00 | 84 | 1018.0 |
| 20260831011022 | 68 | 0.0 | 1.7 | 0.00 | 0.00 | 0.00 | 84 | 1017.9 | |
| 20260831010020 | 69 | 0.0 | 1.7 | 0.00 | 0.00 | 0.00 | 83 | 1017.9 | |
| 20260831005020 | 69 | 0.0 | 1.7 | 0.00 | 0.00 | 0.00 | 83 | 1018.0 | |
| 20260831004020 | 69 | 248 | 0.9 | 1.7 | 0.00 | 0.00 | 0.00 | 83 | 1017.9 |
| 20260831003040 | 69 | 0.0 | 1.7 | 0.00 | 0.00 | 0.00 | 83 | 1017.6 | |
| 20260831002020 | 69 | 248 | 0.9 | 1.7 | 0.00 | 0.00 | 0.00 | 83 | 1017.3 |
| 20260831001020 | 69 | 248 | 0.9 | 2.6 | 0.00 | 0.00 | 0.00 | 83 | 1017.2 |
| 20260831000020 | 69 | 0.0 | 1.7 | 0.00 | 0.00 | 0.00 | 83 | 1017.0 | |
| 20260830235020 | 69 | 270 | 0.9 | 4.3 | 0.00 | 0.00 | 0.00 | 82 | 1017.0 |
| 20260830234020 | 69 | 248 | 0.9 | 2.6 | 0.00 | 0.00 | 0.00 | 83 | 1017.0 |
| 20260830233044 | 69 | 0.0 | 1.7 | 0.00 | 0.00 | 0.00 | 82 | 1016.9 | |
| 20260830232020 | 69 | 248 | 0.9 | 2.6 | 0.00 | 0.00 | 0.00 | 83 | 1016.7 |
| 20260830231020 | 69 | 248 | 0.9 | 1.7 | 0.00 | 0.00 | 0.00 | 83 | 1016.8 |
| 20260830230041 | 69 | 225 | 1.7 | 3.5 | 0.00 | 0.00 | 0.00 | 82 | 1016.8 |
| 20260830225021 | 69 | 0.0 | 1.7 | 0.00 | 0.00 | 0.00 | 82 | 1016.9 | |
| 20260830224020 | 69 | 225 | 0.9 | 2.6 | 0.00 | 0.00 | 0.00 | 82 | 1016.9 |
| 20260830223040 | 69 | 248 | 0.9 | 3.5 | 0.00 | 0.00 | 0.00 | 82 | 1016.8 |
| 20260830222020 | 69 | 248 | 1.7 | 3.5 | 0.00 | 0.00 | 0.00 | 82 | 1017.0 |
| 20260830221020 | 69 | 270 | 0.9 | 2.6 | 0.00 | 0.00 | 0.00 | 82 | 1016.9 |
| 20260830220020 | 69 | 270 | 0.9 | 2.6 | 0.00 | 0.00 | 0.00 | 82 | 1016.8 |
| 20260830215020 | 69 | 270 | 0.9 | 3.5 | 0.00 | 0.00 | 0.00 | 82 | 1016.9 |
| 20260830214021 | 68 | 248 | 1.7 | 3.5 | 0.00 | 0.00 | 0.00 | 83 | 1016.8 |
| 20260830213042 | 68 | 0.0 | 0.9 | 0.00 | 0.00 | 0.00 | 83 | 1016.8 | |
| 20260830212022 | 68 | 225 | 0.9 | 2.6 | 0.00 | 0.00 | 0.00 | 83 | 1016.8 |
| 20260830211021 | 68 | 0.0 | 0.0 | 0.00 | 0.00 | 0.00 | 83 | 1016.9 | |
| 20260830210024 | 68 | 0.0 | 0.9 | 0.00 | 0.00 | 0.00 | 83 | 1016.9 | |
| 20260830205021 | 68 | 0.0 | 0.9 | 0.00 | 0.00 | 0.00 | 84 | 1017.0 | |
| 20260830204023 | 68 | 0.0 | 1.7 | 0.00 | 0.00 | 0.00 | 85 | 1017.0 | |
| 20260830203041 | 67 | 0.0 | 0.9 | 0.00 | 0.00 | 0.00 | 85 | 1016.9 | |
| 20260830202021 | 67 | 0.0 | 0.9 | 0.00 | 0.00 | 0.00 | 86 | 1016.9 | |
| 20260830201021 | 67 | 0 | 1.7 | 3.5 | 0.00 | 0.00 | 0.00 | 86 | 1017.1 |
| 20260830200024 | 67 | 338 | 1.7 | 4.3 | 0.00 | 0.00 | 0.00 | 85 | 1017.1 |
| 20260830195021 | 67 | 23 | 1.7 | 3.5 | 0.00 | 0.00 | 0.00 | 85 | 1017.1 |
| 20260830194021 | 67 | 0 | 1.7 | 2.6 | 0.00 | 0.00 | 0.00 | 85 | 1017.1 |
| 20260830193021 | 67 | 23 | 2.6 | 4.3 | 0.00 | 0.00 | 0.00 | 83 | 1017.2 |
| 20260830192022 | 68 | 338 | 1.7 | 3.5 | 0.00 | 0.00 | 0.00 | 83 | 1017.5 |
| 20260830191021 | 69 | 293 | 1.7 | 4.3 | 0.00 | 0.00 | 0.00 | 81 | 1017.6 |
| 20260830190041 | 68 | 293 | 2.6 | 5.2 | 0.00 | 0.00 | 0.00 | 81 | 1017.7 |
| 20260830185021 | 70 | 23 | 3.5 | 5.2 | 0.00 | 0.00 | 0.00 | 78 | 1017.7 |
| 20260830184021 | 70 | 338 | 4.3 | 7.8 | 0.00 | 0.00 | 0.00 | 76 | 1017.7 |
| 20260830183041 | 70 | 23 | 1.7 | 5.2 | 0.00 | 0.00 | 0.00 | 75 | 1017.7 |
| 20260830182021 | 71 | 293 | 3.5 | 6.1 | 0.00 | 0.00 | 0.00 | 74 | 1017.6 |
| 20260830181020 | 72 | 293 | 3.5 | 8.7 | 0.00 | 0.00 | 0.00 | 69 | 1017.6 |
| 20260830180021 | 73 | 338 | 4.3 | 7.8 | 0.00 | 0.00 | 0.00 | 65 | 1017.5 |
| 20260830175022 | 74 | 293 | 5.2 | 8.7 | 0.00 | 0.00 | 0.00 | 63 | 1017.4 |
| 20260830174041 | 75 | 293 | 3.5 | 7.0 | 0.00 | 0.00 | 0.00 | 64 | 1017.3 |
| 20260830173020 | 76 | 270 | 4.3 | 9.6 | 0.00 | 0.00 | 0.00 | 61 | 1017.3 |
| 20260830172020 | 75 | 315 | 2.6 | 4.3 | 0.00 | 0.00 | 0.00 | 60 | 1017.3 |
| 20260830171020 | 76 | 293 | 1.7 | 4.3 | 0.00 | 0.00 | 0.00 | 59 | 1017.3 |
| 20260830170020 | 75 | 270 | 2.6 | 6.1 | 0.00 | 0.00 | 0.00 | 60 | 1017.3 |